| time (UTC) | temp C | wind direction | speed KPH | gust KPH | rain 1hr cm | rain 24hr cm | rain mn cm | humidity % | barometer mb |
| 20260505112305 | 7 | 48 | 20.9 | 25.7 | 0.00 | 0.00 | 0.00 | 74 | 1003.0 |
| 20260505111804 | 8 | 47 | 20.9 | 32.2 | 0.00 | 0.00 | 0.00 | 74 | 1003.0 |
| 20260505111506 | 7 | 50 | 24.1 | 32.2 | 0.00 | 0.00 | 0.00 | 74 | 1003.0 |
| 20260505111304 | 8 | 48 | 19.3 | 27.4 | 0.00 | 0.00 | 0.00 | 73 | 1002.9 |
| 20260505110804 | 8 | 43 | 22.5 | 29.0 | 0.00 | 0.00 | 0.00 | 73 | 1002.7 |
| 20260505101804 | 9 | 43 | 22.5 | 32.2 | 0.00 | 0.00 | 0.00 | 65 | 1002.3 |
| 20260505101503 | 8 | 36 | 22.5 | 32.2 | 0.00 | 0.00 | 0.00 | 64 | 1002.1 |
| 20260505101304 | 9 | 49 | 24.1 | 32.2 | 0.00 | 0.00 | 0.00 | 63 | 1002.1 |
| 20260505100804 | 9 | 55 | 22.5 | 32.2 | 0.00 | 0.00 | 0.00 | 63 | 1001.8 |
| 20260505100304 | 9 | 68 | 24.1 | 33.8 | 0.00 | 0.00 | 0.00 | 63 | 1001.5 |
| 20260505095804 | 9 | 65 | 25.7 | 32.2 | 0.00 | 0.00 | 0.00 | 62 | 1001.5 |
| 20260505095305 | 9 | 70 | 27.4 | 38.6 | 0.00 | 0.00 | 0.00 | 62 | 1001.2 |
| 20260505094805 | 9 | 68 | 27.4 | 37.0 | 0.00 | 0.00 | 0.00 | 62 | 1001.1 |
| 20260505094503 | 9 | 57 | 27.4 | 38.6 | 0.00 | 0.00 | 0.00 | 62 | 1001.1 |
| 20260505094304 | 10 | 66 | 29.0 | 38.6 | 0.00 | 0.00 | 0.00 | 61 | 1001.1 |
| 20260505093804 | 10 | 69 | 29.0 | 40.2 | 0.00 | 0.00 | 0.00 | 61 | 1001.1 |
| 20260505093304 | 10 | 70 | 30.6 | 38.6 | 0.00 | 0.00 | 0.00 | 61 | 1001.0 |
| 20260505093104 | 9 | 54 | 30.6 | 40.2 | 0.00 | 0.00 | 0.00 | 61 | 1001.0 |
| 20260505092804 | 10 | 70 | 30.6 | 37.0 | 0.00 | 0.00 | 0.00 | 61 | 1001.1 |
| 20260505092305 | 10 | 68 | 29.0 | 45.1 | 0.00 | 0.00 | 0.00 | 61 | 1000.9 |
| 20260505091804 | 10 | 66 | 27.4 | 38.6 | 0.00 | 0.00 | 0.00 | 60 | 1000.8 |
| 20260505091503 | 10 | 75 | 30.6 | 38.6 | 0.00 | 0.00 | 0.00 | 60 | 1000.8 |
| 20260505091304 | 10 | 70 | 27.4 | 38.6 | 0.00 | 0.00 | 0.00 | 60 | 1000.9 |
| 20260505090804 | 10 | 60 | 29.0 | 35.4 | 0.00 | 0.00 | 0.00 | 60 | 1001.0 |
| 20260505090304 | 10 | 62 | 27.4 | 37.0 | 0.00 | 0.00 | 0.00 | 60 | 1001.1 |
| 20260505085804 | 10 | 61 | 27.4 | 35.4 | 0.00 | 0.00 | 0.00 | 59 | 1000.8 |
| 20260505085305 | 10 | 59 | 29.0 | 37.0 | 0.00 | 0.00 | 0.00 | 59 | 1000.9 |
| 20260505084804 | 10 | 53 | 29.0 | 40.2 | 0.00 | 0.00 | 0.00 | 58 | 1001.0 |
| 20260505084502 | 10 | 57 | 29.0 | 40.2 | 0.00 | 0.00 | 0.00 | 58 | 1001.0 |
| 20260505084304 | 10 | 53 | 29.0 | 38.6 | 0.00 | 0.00 | 0.00 | 58 | 1000.9 |
| 20260505083119 | 10 | 37 | 29.0 | 45.1 | 0.00 | 0.00 | 0.00 | 57 | 1000.9 |
| 20260505082804 | 10 | 56 | 33.8 | 45.1 | 0.00 | 0.00 | 0.00 | 57 | 1000.8 |
| 20260505082304 | 10 | 54 | 32.2 | 41.8 | 0.00 | 0.00 | 0.00 | 56 | 1000.7 |
| 20260505081804 | 11 | 57 | 32.2 | 41.8 | 0.00 | 0.00 | 0.00 | 56 | 1000.7 |
| 20260505081503 | 10 | 48 | 33.8 | 48.3 | 0.00 | 0.00 | 0.00 | 55 | 1000.7 |
| 20260505081304 | 11 | 51 | 37.0 | 48.3 | 0.00 | 0.00 | 0.00 | 55 | 1000.5 |
| 20260505080803 | 11 | 52 | 35.4 | 48.3 | 0.00 | 0.00 | 0.00 | 55 | 1000.5 |
| 20260505080304 | 11 | 45 | 32.2 | 41.8 | 0.00 | 0.00 | 0.00 | 55 | 1000.6 |
| 20260505080104 | 11 | 53 | 30.6 | 43.5 | 0.00 | 0.00 | 0.00 | 55 | 1000.7 |
| 20260505075804 | 11 | 49 | 32.2 | 41.8 | 0.00 | 0.00 | 0.00 | 55 | 1000.7 |
| 20260505075304 | 11 | 37 | 27.4 | 37.0 | 0.00 | 0.00 | 0.00 | 54 | 1000.7 |
| 20260505074804 | 11 | 48 | 33.8 | 41.8 | 0.00 | 0.00 | 0.00 | 54 | 1000.5 |
| 20260505074502 | 11 | 54 | 33.8 | 48.3 | 0.00 | 0.00 | 0.00 | 54 | 1000.4 |
| 20260505074304 | 11 | 45 | 32.2 | 48.3 | 0.00 | 0.00 | 0.00 | 54 | 1000.4 |
| 20260505073305 | 12 | 42 | 32.2 | 41.8 | 0.00 | 0.00 | 0.00 | 53 | 999.9 |
| 20260505073108 | 11 | 47 | 29.0 | 46.7 | 0.00 | 0.00 | 0.00 | 52 | 1000.0 |
| 20260505072305 | 12 | 46 | 40.2 | 53.1 | 0.00 | 0.00 | 0.00 | 51 | 999.8 |
| 20260505071804 | 12 | 55 | 41.8 | 53.1 | 0.00 | 0.00 | 0.00 | 51 | 999.5 |
| 20260505071502 | 12 | 51 | 40.2 | 59.5 | 0.00 | 0.00 | 0.00 | 51 | 999.4 |
| 20260505071304 | 12 | 52 | 40.2 | 53.1 | 0.00 | 0.00 | 0.00 | 51 | 999.5 |
| 20260505070804 | 12 | 52 | 45.1 | 59.5 | 0.00 | 0.00 | 0.00 | 51 | 999.4 |
| 20260505070303 | 12 | 59 | 45.1 | 61.2 | 0.00 | 0.00 | 0.00 | 51 | 999.1 |
| 20260505065804 | 12 | 49 | 38.6 | 56.3 | 0.00 | 0.00 | 0.00 | 52 | 999.1 |
| 20260505065304 | 12 | 52 | 46.7 | 56.3 | 0.00 | 0.00 | 0.00 | 52 | 999.0 |
| 20260505064502 | 13 | 40 | 35.4 | 49.9 | 0.00 | 0.00 | 0.00 | 52 | 999.1 |
| 20260505064304 | 13 | 55 | 37.0 | 49.9 | 0.00 | 0.00 | 0.00 | 51 | 998.9 |
| 20260505063804 | 13 | 50 | 35.4 | 49.9 | 0.00 | 0.00 | 0.00 | 51 | 998.8 |
| 20260505063304 | 13 | 51 | 40.2 | 49.9 | 0.00 | 0.00 | 0.00 | 51 | 999.0 |
| 20260505063103 | 13 | 59 | 37.0 | 51.5 | 0.00 | 0.00 | 0.00 | 51 | 999.0 |
| 20260505062305 | 13 | 58 | 35.4 | 49.9 | 0.00 | 0.00 | 0.00 | 51 | 998.7 |
| 20260505061804 | 13 | 61 | 35.4 | 48.3 | 0.00 | 0.00 | 0.00 | 51 | 998.6 |
| 20260505061503 | 13 | 60 | 35.4 | 49.9 | 0.00 | 0.00 | 0.00 | 51 | 998.5 |
| 20260505061304 | 13 | 58 | 35.4 | 45.1 | 0.00 | 0.00 | 0.00 | 51 | 998.5 |
| 20260505060305 | 14 | 54 | 37.0 | 53.1 | 0.00 | 0.00 | 0.00 | 51 | 998.2 |
| 20260505060104 | 13 | 52 | 38.6 | 56.3 | 0.00 | 0.00 | 0.00 | 51 | 998.1 |
| 20260505055304 | 14 | 60 | 38.6 | 49.9 | 0.00 | 0.00 | 0.00 | 51 | 997.9 |
| 20260505054804 | 14 | 61 | 38.6 | 53.1 | 0.00 | 0.00 | 0.00 | 51 | 997.8 |
| 20260505054503 | 14 | 64 | 37.0 | 49.9 | 0.00 | 0.00 | 0.00 | 52 | 997.8 |
| 20260505054304 | 15 | 57 | 38.6 | 49.9 | 0.00 | 0.00 | 0.00 | 51 | 997.7 |
| 20260505053804 | 15 | 63 | 38.6 | 53.1 | 0.00 | 0.00 | 0.00 | 51 | 997.6 |
| 20260505053304 | 15 | 61 | 40.2 | 56.3 | 0.00 | 0.00 | 0.00 | 51 | 997.6 |
| 20260505053113 | 15 | 51 | 43.5 | 53.1 | 0.00 | 0.00 | 0.00 | 51 | 997.6 |
| 20260505052804 | 15 | 59 | 38.6 | 51.5 | 0.00 | 0.00 | 0.00 | 51 | 997.6 |
| 20260505051804 | 15 | 58 | 40.2 | 56.3 | 0.00 | 0.00 | 0.00 | 51 | 997.2 |
| 20260505051505 | 15 | 72 | 38.6 | 54.7 | 0.00 | 0.00 | 0.00 | 51 | 997.3 |
| 20260505051304 | 15 | 58 | 38.6 | 56.3 | 0.00 | 0.00 | 0.00 | 50 | 997.3 |
| 20260505050804 | 15 | 63 | 38.6 | 48.3 | 0.00 | 0.00 | 0.00 | 50 | 997.5 |
| 20260505050304 | 16 | 67 | 38.6 | 51.5 | 0.00 | 0.00 | 0.00 | 50 | 997.4 |
| 20260505041502 | 17 | 54 | 32.2 | 49.9 | 0.00 | 0.00 | 0.00 | 49 | 996.9 |
| 20260505041304 | 17 | 66 | 35.4 | 49.9 | 0.00 | 0.00 | 0.00 | 48 | 996.9 |
| 20260505040304 | 18 | 59 | 33.8 | 46.7 | 0.00 | 0.00 | 0.00 | 45 | 996.5 |
| 20260505040104 | 18 | 68 | 33.8 | 49.9 | 0.00 | 0.00 | 0.00 | 45 | 996.5 |
| 20260505034804 | 19 | 59 | 30.6 | 40.2 | 0.00 | 0.00 | 0.00 | 42 | 996.1 |
| 20260505034502 | 19 | 64 | 30.6 | 46.7 | 0.00 | 0.00 | 0.00 | 41 | 996.0 |
| 20260505034303 | 20 | 58 | 37.0 | 46.7 | 0.00 | 0.00 | 0.00 | 40 | 995.9 |
| 20260505033804 | 20 | 52 | 33.8 | 46.7 | 0.00 | 0.00 | 0.00 | 37 | 995.7 |
| 20260505033103 | 20 | 82 | 20.9 | 25.7 | 0.00 | 0.00 | 0.00 | 34 | 995.5 |
| 20260505032804 | 20 | 65 | 20.9 | 24.1 | 0.00 | 0.00 | 0.00 | 34 | 995.5 |
| 20260505032304 | 20 | 55 | 19.3 | 25.7 | 0.00 | 0.00 | 0.00 | 33 | 995.5 |
| 20260505031803 | 20 | 50 | 19.3 | 24.1 | 0.00 | 0.00 | 0.00 | 33 | 995.4 |
| 20260505031502 | 20 | 41 | 17.7 | 27.4 | 0.00 | 0.00 | 0.00 | 33 | 995.4 |
| 20260505030804 | 20 | 44 | 19.3 | 27.4 | 0.00 | 0.00 | 0.00 | 32 | 995.2 |
| 20260505030303 | 20 | 40 | 19.3 | 25.7 | 0.00 | 0.00 | 0.00 | 32 | 995.0 |
| 20260505025305 | 20 | 50 | 17.7 | 24.1 | 0.00 | 0.00 | 0.00 | 32 | 994.9 |
| 20260505024804 | 21 | 44 | 14.5 | 19.3 | 0.00 | 0.00 | 0.00 | 31 | 994.8 |
| 20260505024506 | 20 | 62 | 12.9 | 17.7 | 0.00 | 0.00 | 0.00 | 31 | 994.7 |
| 20260505023803 | 20 | 81 | 11.3 | 16.1 | 0.00 | 0.00 | 0.00 | 31 | 994.8 |
| 20260505023304 | 20 | 78 | 11.3 | 16.1 | 0.00 | 0.00 | 0.00 | 31 | 994.6 |
| 20260505023105 | 20 | 75 | 11.3 | 17.7 | 0.00 | 0.00 | 0.00 | 31 | 994.5 |
| 20260505022804 | 20 | 85 | 11.3 | 16.1 | 0.00 | 0.00 | 0.00 | 31 | 994.4 |
| 20260505022305 | 20 | 80 | 9.7 | 14.5 | 0.00 | 0.00 | 0.00 | 31 | 994.4 |
| 20260505021804 | 21 | 74 | 8.0 | 11.3 | 0.00 | 0.00 | 0.00 | 30 | 994.2 |
| 20260505021502 | 20 | 81 | 8.0 | 16.1 | 0.00 | 0.00 | 0.00 | 30 | 994.2 |
| 20260505021303 | 21 | 80 | 9.7 | 16.1 | 0.00 | 0.00 | 0.00 | 30 | 994.1 |
| 20260505020803 | 21 | 86 | 11.3 | 16.1 | 0.00 | 0.00 | 0.00 | 30 | 994.2 |
| 20260505015805 | 21 | 63 | 3.2 | 4.8 | 0.00 | 0.00 | 0.00 | 29 | 994.1 |
| 20260505015305 | 22 | 61 | 6.4 | 9.7 | 0.00 | 0.00 | 0.00 | 28 | 994.1 |
| 20260505014504 | 22 | 74 | 4.8 | 8.0 | 0.00 | 0.00 | 0.00 | 27 | 994.0 |
| 20260505014307 | 22 | 75 | 4.8 | 8.0 | 0.00 | 0.00 | 0.00 | 26 | 994.1 |
| 20260505013805 | 23 | 67 | 3.2 | 8.0 | 0.00 | 0.00 | 0.00 | 26 | 994.1 |
| 20260505013305 | 23 | 82 | 4.8 | 8.0 | 0.00 | 0.00 | 0.00 | 25 | 994.1 |
| 20260505013103 | 23 | 96 | 4.8 | 14.5 | 0.00 | 0.00 | 0.00 | 25 | 994.1 |
| 20260505012805 | 23 | 95 | 9.7 | 14.5 | 0.00 | 0.00 | 0.00 | 25 | 994.1 |
| 20260505012305 | 23 | 104 | 9.7 | 12.9 | 0.00 | 0.00 | 0.00 | 25 | 993.8 |
| 20260505011604 | 23 | 107 | 11.3 | 14.5 | 0.00 | 0.00 | 0.00 | 24 | 993.7 |
| 20260505011305 | 24 | 113 | 12.9 | 14.5 | 0.00 | 0.00 | 0.00 | 24 | 993.7 |
| 20260505010805 | 24 | 113 | 12.9 | 16.1 | 0.00 | 0.00 | 0.00 | 23 | 993.7 |
| 20260505010305 | 25 | 115 | 11.3 | 12.9 | 0.00 | 0.00 | 0.00 | 23 | 993.7 |
| 20260505010004 | 24 | 118 | 9.7 | 14.5 | 0.00 | 0.00 | 0.00 | 23 | 993.7 |
| 20260505005305 | 25 | 107 | 6.4 | 11.3 | 0.00 | 0.00 | 0.00 | 22 | 993.6 |
| 20260505004805 | 25 | 99 | 6.4 | 12.9 | 0.00 | 0.00 | 0.00 | 22 | 993.8 |
| 20260505004604 | 25 | 106 | 6.4 | 14.5 | 0.00 | 0.00 | 0.00 | 21 | 993.7 |
| 20260505004305 | 25 | 100 | 9.7 | 12.9 | 0.00 | 0.00 | 0.00 | 21 | 993.8 |
| 20260505003805 | 25 | 103 | 11.3 | 14.5 | 0.00 | 0.00 | 0.00 | 21 | 993.8 |
| 20260505003305 | 26 | 114 | 9.7 | 14.5 | 0.00 | 0.00 | 0.00 | 21 | 993.8 |
| 20260505003003 | 25 | 109 | 11.3 | 20.9 | 0.00 | 0.00 | 0.00 | 21 | 993.8 |
| 20260505002305 | 26 | 104 | 12.9 | 20.9 | 0.00 | 0.00 | 0.00 | 20 | 993.8 |
| 20260505001804 | 26 | 100 | 14.5 | 19.3 | 0.00 | 0.00 | 0.00 | 20 | 993.8 |
| 20260505001604 | 26 | 104 | 14.5 | 24.1 | 0.00 | 0.00 | 0.00 | 20 | 993.8 |
| 20260505001305 | 26 | 97 | 17.7 | 24.1 | 0.00 | 0.00 | 0.00 | 20 | 993.8 |
| 20260505000805 | 26 | 97 | 19.3 | 25.7 | 0.00 | 0.00 | 0.00 | 20 | 993.8 |
| 20260505000305 | 26 | 97 | 16.1 | 24.1 | 0.00 | 0.00 | 0.00 | 20 | 993.8 |
| 20260505000110 | 26 | 111 | 16.1 | 27.4 | 0.00 | 0.00 | 0.00 | 20 | 993.8 |
| 20260504235804 | 26 | 97 | 19.3 | 25.7 | 0.00 | 0.00 | 0.00 | 20 | 993.8 |
| 20260504234805 | 26 | 95 | 16.1 | 25.7 | 0.00 | 0.00 | 0.00 | 20 | 994.0 |
| 20260504234504 | 26 | 92 | 19.3 | 27.4 | 0.00 | 0.00 | 0.00 | 20 | 994.0 |
| 20260504234305 | 26 | 95 | 19.3 | 27.4 | 0.00 | 0.00 | 0.00 | 20 | 994.2 |
| 20260504233805 | 26 | 93 | 19.3 | 27.4 | 0.00 | 0.00 | 0.00 | 20 | 994.0 |
| 20260504233104 | 26 | 104 | 17.7 | 29.0 | 0.00 | 0.00 | 0.00 | 21 | 993.7 |
| 20260504232805 | 26 | 97 | 19.3 | 25.7 | 0.00 | 0.00 | 0.00 | 21 | 993.7 |
| 20260504232305 | 27 | 100 | 20.9 | 29.0 | 0.00 | 0.00 | 0.00 | 21 | 993.8 |
| 20260504231805 | 27 | 88 | 22.5 | 32.2 | 0.00 | 0.00 | 0.00 | 20 | 993.7 |
| 20260504231513 | 27 | 91 | 24.1 | 33.8 | 0.00 | 0.00 | 0.00 | 20 | 993.6 |
| 20260504231304 | 27 | 91 | 22.5 | 33.8 | 0.00 | 0.00 | 0.00 | 20 | 993.8 |
| 20260504230804 | 27 | 72 | 20.9 | 27.4 | 0.00 | 0.00 | 0.00 | 20 | 993.7 |
| 20260504230305 | 27 | 79 | 20.9 | 25.7 | 0.00 | 0.00 | 0.00 | 20 | 993.6 |
| 20260504230104 | 27 | 72 | 19.3 | 29.0 | 0.00 | 0.00 | 0.00 | 19 | 993.7 |
| 20260504225805 | 27 | 89 | 16.1 | 29.0 | 0.00 | 0.00 | 0.00 | 18 | 993.7 |
| 20260504225306 | 28 | 100 | 19.3 | 24.1 | 0.00 | 0.00 | 0.00 | 17 | 993.5 |
| 20260504224805 | 28 | 100 | 11.3 | 20.9 | 0.00 | 0.00 | 0.00 | 16 | 993.4 |
| 20260504224502 | 28 | 127 | 14.5 | 20.9 | 0.00 | 0.00 | 0.00 | 17 | 993.5 |
| 20260504224305 | 28 | 105 | 16.1 | 20.9 | 0.00 | 0.00 | 0.00 | 16 | 993.6 |
| 20260504223805 | 28 | 113 | 12.9 | 16.1 | 0.00 | 0.00 | 0.00 | 16 | 993.5 |
| 20260504223103 | 28 | 102 | 11.3 | 17.7 | 0.00 | 0.00 | 0.00 | 16 | 993.5 |
| 20260504222804 | 29 | 112 | 11.3 | 16.1 | 0.00 | 0.00 | 0.00 | 15 | 993.5 |
| 20260504222305 | 29 | 139 | 6.4 | 14.5 | 0.00 | 0.00 | 0.00 | 15 | 993.6 |
| 20260504221505 | 29 | 219 | 3.2 | 8.0 | 0.00 | 0.00 | 0.00 | 15 | 993.6 |
| 20260504221304 | 29 | 199 | 3.2 | 4.8 | 0.00 | 0.00 | 0.00 | 15 | 993.7 |
| 20260504220805 | 30 | 156 | 6.4 | 9.7 | 0.00 | 0.00 | 0.00 | 15 | 993.6 |
| 20260504215805 | 30 | 288 | 9.7 | 19.3 | 0.00 | 0.00 | 0.00 | 15 | 993.7 |
| 20260504215305 | 29 | 277 | 11.3 | 19.3 | 0.00 | 0.00 | 0.00 | 15 | 993.8 |
| 20260504214805 | 30 | 325 | 9.7 | 16.1 | 0.00 | 0.00 | 0.00 | 14 | 993.9 |
| 20260504214502 | 29 | 337 | 6.4 | 12.9 | 0.00 | 0.00 | 0.00 | 14 | 994.0 |
| 20260504214304 | 30 | 326 | 6.4 | 12.9 | 0.00 | 0.00 | 0.00 | 14 | 994.0 |
| 20260504213804 | 30 | 232 | 9.7 | 16.1 | 0.00 | 0.00 | 0.00 | 14 | 994.0 |
| 20260504213104 | 29 | 301 | 3.2 | 12.9 | 0.00 | 0.00 | 0.00 | 15 | 994.0 |
| 20260504212804 | 30 | 34 | 3.2 | 12.9 | 0.00 | 0.00 | 0.00 | 15 | 994.3 |
| 20260504211804 | 29 | 279 | 4.8 | 11.3 | 0.00 | 0.00 | 0.00 | 15 | 994.5 |
| 20260504211511 | 29 | 295 | 4.8 | 11.3 | 0.00 | 0.00 | 0.00 | 14 | 994.5 |
| 20260504211305 | 29 | 20 | 1.6 | 3.2 | 0.00 | 0.00 | 0.00 | 14 | 994.6 |
| 20260504210805 | 29 | 266 | 1.6 | 8.0 | 0.00 | 0.00 | 0.00 | 14 | 994.7 |
| 20260504210304 | 29 | 256 | 3.2 | 4.8 | 0.00 | 0.00 | 0.00 | 14 | 994.7 |
| 20260504210111 | 29 | 231 | 1.6 | 8.0 | 0.00 | 0.00 | 0.00 | 14 | 994.7 |
| 20260504205805 | 29 | 27 | 3.2 | 8.0 | 0.00 | 0.00 | 0.00 | 14 | 994.7 |
| 20260504205305 | 29 | 340 | 3.2 | 8.0 | 0.00 | 0.00 | 0.00 | 14 | 994.8 |
| 20260504204805 | 29 | 334 | 4.8 | 11.3 | 0.00 | 0.00 | 0.00 | 14 | 994.8 |
| 20260504204505 | 28 | 324 | 4.8 | 16.1 | 0.00 | 0.00 | 0.00 | 14 | 994.8 |
| 20260504204304 | 29 | 353 | 8.0 | 16.1 | 0.00 | 0.00 | 0.00 | 14 | 994.9 |
| 20260504203805 | 29 | 328 | 12.9 | 19.3 | 0.00 | 0.00 | 0.00 | 13 | 994.9 |
| 20260504203105 | 29 | 338 | 11.3 | 20.9 | 0.00 | 0.00 | 0.00 | 14 | 995.0 |
| 20260504202805 | 30 | 263 | 4.8 | 11.3 | 0.00 | 0.00 | 0.00 | 14 | 995.0 |
| 20260504201805 | 30 | 276 | 11.3 | 22.5 | 0.00 | 0.00 | 0.00 | 13 | 995.1 |
| 20260504201509 | 30 | 255 | 16.1 | 22.5 | 0.00 | 0.00 | 0.00 | 13 | 995.1 |
| 20260504201305 | 30 | 263 | 12.9 | 19.3 | 0.00 | 0.00 | 0.00 | 13 | 995.1 |
| 20260504200305 | 30 | 272 | 14.5 | 24.1 | 0.00 | 0.00 | 0.00 | 13 | 995.3 |
| 20260504200105 | 30 | 281 | 12.9 | 25.7 | 0.00 | 0.00 | 0.00 | 13 | 995.3 |
| 20260504195805 | 30 | 265 | 12.9 | 20.9 | 0.00 | 0.00 | 0.00 | 13 | 995.4 |
| 20260504195305 | 30 | 298 | 16.1 | 22.5 | 0.00 | 0.00 | 0.00 | 13 | 995.5 |
| 20260504194805 | 31 | 250 | 8.0 | 20.9 | 0.00 | 0.00 | 0.00 | 13 | 995.5 |
| 20260504194503 | 30 | 266 | 3.2 | 22.5 | 0.00 | 0.00 | 0.00 | 13 | 995.5 |
| 20260504194305 | 31 | 246 | 3.2 | 14.5 | 0.00 | 0.00 | 0.00 | 13 | 995.6 |
| 20260504193805 | 31 | 273 | 11.3 | 22.5 | 0.00 | 0.00 | 0.00 | 13 | 995.7 |
| 20260504193104 | 30 | 287 | 14.5 | 24.1 | 0.00 | 0.00 | 0.00 | 13 | 995.7 |
| 20260504192805 | 30 | 306 | 8.0 | 20.9 | 0.00 | 0.00 | 0.00 | 13 | 995.7 |
| 20260504192305 | 30 | 265 | 8.0 | 20.9 | 0.00 | 0.00 | 0.00 | 13 | 995.9 |
| 20260504191804 | 30 | 276 | 12.9 | 19.3 | 0.00 | 0.00 | 0.00 | 14 | 996.0 |
| 20260504191503 | 29 | 249 | 6.4 | 17.7 | 0.00 | 0.00 | 0.00 | 14 | 996.0 |
| 20260504191305 | 30 | 172 | 1.6 | 4.8 | 0.00 | 0.00 | 0.00 | 14 | 996.0 |
| 20260504190804 | 29 | 243 | 3.2 | 11.3 | 0.00 | 0.00 | 0.00 | 14 | 996.1 |
| 20260504190304 | 29 | 270 | 9.7 | 16.1 | 0.00 | 0.00 | 0.00 | 14 | 996.2 |
| 20260504190130 | 29 | 279 | 9.7 | 32.2 | 0.00 | 0.00 | 0.00 | 14 | 996.2 |
| 20260504185805 | 29 | 309 | 14.5 | 32.2 | 0.00 | 0.00 | 0.00 | 14 | 996.3 |
| 20260504184804 | 29 | 93 | 3.2 | 12.9 | 0.00 | 0.00 | 0.00 | 13 | 996.3 |
| 20260504184509 | 29 | 289 | 9.7 | 14.5 | 0.00 | 0.00 | 0.00 | 13 | 996.4 |
| 20260504184305 | 29 | 289 | 8.0 | 14.5 | 0.00 | 0.00 | 0.00 | 14 | 996.4 |
| 20260504183805 | 29 | 338 | 4.8 | 11.3 | 0.00 | 0.00 | 0.00 | 13 | 996.6 |
| 20260504183305 | 29 | 269 | 4.8 | 8.0 | 0.00 | 0.00 | 0.00 | 13 | 996.6 |
| 20260504183103 | 29 | 257 | 3.2 | 20.9 | 0.00 | 0.00 | 0.00 | 13 | 996.7 |
| 20260504181805 | 29 | 284 | 14.5 | 20.9 | 0.00 | 0.00 | 0.00 | 14 | 997.0 |
| 20260504181503 | 28 | 279 | 6.4 | 17.7 | 0.00 | 0.00 | 0.00 | 13 | 997.0 |
| 20260504181305 | 29 | 296 | 8.0 | 16.1 | 0.00 | 0.00 | 0.00 | 13 | 997.1 |
| 20260504180805 | 29 | 274 | 11.3 | 19.3 | 0.00 | 0.00 | 0.00 | 14 | 997.2 |
| 20260504180304 | 28 | 286 | 14.5 | 20.9 | 0.00 | 0.00 | 0.00 | 15 | 997.2 |
| 20260504180210 | 28 | 282 | 11.3 | 20.9 | 0.00 | 0.00 | 0.00 | 15 | 997.3 |
| 20260504175304 | 28 | 304 | 16.1 | 22.5 | 0.00 | 0.00 | 0.00 | 16 | 997.5 |
| 20260504174804 | 28 | 287 | 14.5 | 20.9 | 0.00 | 0.00 | 0.00 | 16 | 997.5 |
| 20260504174502 | 28 | 249 | 14.5 | 29.0 | 0.00 | 0.00 | 0.00 | 16 | 997.5 |
| 20260504174304 | 28 | 267 | 16.1 | 29.0 | 0.00 | 0.00 | 0.00 | 17 | 997.6 |
| 20260504173805 | 27 | 276 | 16.1 | 22.5 | 0.00 | 0.00 | 0.00 | 16 | 997.7 |
| 20260504173304 | 27 | 282 | 17.7 | 22.5 | 0.00 | 0.00 | 0.00 | 16 | 997.7 |
| 20260504173127 | 27 | 275 | 17.7 | 24.1 | 0.00 | 0.00 | 0.00 | 16 | 997.8 |
| 20260504172805 | 27 | 297 | 14.5 | 22.5 | 0.00 | 0.00 | 0.00 | 16 | 997.8 |
| 20260504171805 | 27 | 301 | 16.1 | 25.7 | 0.00 | 0.00 | 0.00 | 17 | 997.9 |
| 20260504171503 | 27 | 324 | 16.1 | 24.1 | 0.00 | 0.00 | 0.00 | 18 | 997.9 |
| 20260504171304 | 27 | 306 | 16.1 | 24.1 | 0.00 | 0.00 | 0.00 | 18 | 998.0 |
| 20260504170805 | 27 | 296 | 17.7 | 24.1 | 0.00 | 0.00 | 0.00 | 19 | 998.0 |
| 20260504170304 | 27 | 290 | 16.1 | 24.1 | 0.00 | 0.00 | 0.00 | 19 | 998.0 |
| 20260504170104 | 27 | 285 | 16.1 | 24.1 | 0.00 | 0.00 | 0.00 | 19 | 998.0 |
| 20260504160304 | 25 | 272 | 16.1 | 20.9 | 0.00 | 0.00 | 0.00 | 25 | 998.7 |
| 20260504150805 | 21 | 290 | 20.9 | 29.0 | 0.00 | 0.00 | 0.00 | 31 | 999.2 |
| 20260504150305 | 20 | 299 | 20.9 | 29.0 | 0.00 | 0.00 | 0.00 | 31 | 999.3 |
| 20260504141305 | 16 | 300 | 20.9 | 27.4 | 0.00 | 0.00 | 0.00 | 45 | 999.7 |
| 20260504140304 | 14 | 303 | 20.9 | 29.0 | 0.00 | 0.00 | 0.00 | 48 | 999.6 |
| 20260504130804 | 8 | 294 | 16.1 | 20.9 | 0.00 | 0.00 | 0.00 | 71 | 999.6 |
| 20260504130305 | 7 | 303 | 12.9 | 19.3 | 0.00 | 0.00 | 0.00 | 72 | 999.6 |
| 20260504120304 | 5 | 4 | 4.8 | 11.3 | 0.00 | 0.00 | 0.00 | 75 | 999.1 |
| 20260504120115 | 5 | 303 | 6.4 | 14.5 | 0.00 | 0.00 | 0.00 | 75 | 999.0 |